Total_Precipitation_Accumulation
1.96 2.18 2.14 2.01 2.10 2.22 2.42 2.60 2.69 2.47 2.31 2.15 1.86 1.70 1.73 1.80 2.03 1.87 1.87 1.71 1.39 1.28 1.22 1.17 1.14 1.22 1.36 1.57 1.76 1.92 2.15 2.34 2.50 2.67 2.82 3.02 3.24 3.47
2.07 2.25 2.21 2.12 2.17 2.22 2.36 2.62 2.87 2.85 2.47 2.03 1.86 1.80 1.90 1.85 2.06 1.83 1.77 1.80 1.52 1.29 1.18 1.18 1.17 1.18 1.24 1.40 1.57 1.72 1.85 1.97 2.13 2.28 2.38 2.46 2.58 2.80
1.98 2.13 2.19 2.30 2.35 2.34 2.45 2.57 2.81 3.04 2.73 2.21 2.10 2.10 2.21 2.20 2.10 1.87 1.66 1.58 1.42 1.37 1.20 1.14 1.13 1.17 1.23 1.29 1.42 1.56 1.64 1.73 1.91 2.07 2.22 2.34 2.37 2.43
2.01 2.17 2.08 2.23 2.39 2.36 2.46 2.46 2.56 2.87 2.77 2.51 2.45 2.40 2.38 2.29 2.29 2.10 1.77 1.61 1.53 1.52 1.30 1.17 1.15 1.14 1.17 1.19 1.29 1.46 1.58 1.66 1.71 1.75 1.82 1.96 2.16 2.33
2.02 2.03 2.00 2.19 2.20 2.29 2.42 2.38 2.37 2.53 2.70 2.64 2.60 2.67 2.63 2.52 2.44 2.25 2.05 1.97 1.67 1.60 1.51 1.41 1.38 1.35 1.32 1.31 1.31 1.38 1.49 1.63 1.74 1.82 1.88 1.97 2.05 2.13
2.03 1.98 1.95 1.98 2.01 2.09 2.21 2.31 2.38 2.51 2.64 2.67 2.72 2.85 2.82 2.86 2.83 2.61 2.47 2.37 2.03 1.67 1.67 1.57 1.50 1.40 1.30 1.23 1.21 1.26 1.38 1.56 1.74 1.82 1.89 1.97 2.03 2.04
2.06 1.97 1.84 1.86 1.92 1.94 1.90 2.01 2.16 2.31 2.34 2.44 2.53 2.74 2.81 2.91 2.90 2.75 2.63 2.61 2.41 1.97 1.80 1.67 1.59 1.48 1.45 1.40 1.30 1.24 1.27 1.39 1.58 1.71 1.78 1.85 1.93 1.95
2.08 2.02 1.87 1.78 1.75 1.70 1.61 1.62 1.71 1.83 2.02 2.25 2.33 2.53 2.72 2.88 3.07 3.12 2.95 2.77 2.63 2.34 2.20 2.06 1.80 1.71 1.54 1.40 1.37 1.18 1.07 1.12 1.21 1.34 1.47 1.60 1.71 1.86
1.97 1.96 1.73 1.57 1.65 1.57 1.59 1.55 1.55 1.67 1.78 2.02 2.20 2.28 2.51 2.71 2.96 3.11 3.09 2.96 2.77 2.61 2.47 2.34 2.01 1.80 1.60 1.48 1.40 1.13 0.98 0.91 0.93 1.00 1.08 1.22 1.34 1.47
1.79 1.83 1.79 1.72 1.71 1.75 1.66 1.54 1.47 1.54 1.63 1.60 1.65 1.81 2.08 2.44 2.62 2.67 2.82 2.86 2.72 2.54 2.45 2.42 2.16 1.94 1.73 1.60 1.53 1.23 1.06 0.97 0.92 0.90 0.91 0.97 1.09 1.20
1.64 1.66 1.68 1.63 1.72 1.60 1.49 1.47 1.46 1.49 1.47 1.44 1.40 1.44 1.59 1.81 2.14 2.30 2.41 2.38 2.28 2.03 1.91 1.98 1.95 1.91 1.84 1.71 1.54 1.38 1.18 1.04 0.97 0.94 0.93 0.93 0.99 1.08
1.65 1.61 1.55 1.43 1.41 1.36 1.34 1.45 1.44 1.42 1.44 1.38 1.29 1.22 1.18 1.33 1.65 1.83 1.92 1.97 1.87 1.81 1.55 1.53 1.57 1.62 1.74 1.61 1.44 1.36 1.28 1.24 1.14 1.01 0.95 0.94 1.05 1.01
1.62 1.60 1.50 1.43 1.25 1.21 1.20 1.23 1.26 1.23 1.30 1.34 1.30 1.27 1.29 1.29 1.33 1.48 1.69 1.82 1.79 1.61 1.47 1.48 1.49 1.51 1.52 1.49 1.41 1.33 1.32 1.36 1.33 1.28 1.22 1.20 1.23 1.20
1.57 1.53 1.52 1.40 1.19 1.11 1.04 1.03 1.05 0.98 1.01 1.13 1.13 1.09 1.10 1.10 1.14 1.28 1.49 1.65 1.75 1.60 1.50 1.53 1.52 1.46 1.42 1.32 1.24 1.15 1.14 1.26 1.42 1.54 1.51 1.51 1.48 1.54
1.41 1.46 1.40 1.26 1.06 0.91 0.90 0.88 0.81 0.79 0.88 0.99 1.01 0.94 0.92 0.97 1.07 1.22 1.37 1.53 1.58 1.51 1.39 1.41 1.45 1.43 1.42 1.31 1.15 1.07 1.06 1.09 1.18 1.38 1.60 1.70 1.69 1.70
1.37 1.33 1.21 1.14 0.99 0.90 0.90 0.83 0.75 0.82 0.92 0.95 0.99 1.00 0.97 1.00 1.03 1.09 1.20 1.33 1.41 1.34 1.25 1.25 1.36 1.48 1.42 1.25 1.20 1.09 1.03 1.03 1.00 1.12 1.42 1.72 1.93 2.03
1.55 1.46 1.34 1.24 1.09 0.99 0.99 1.00 1.01 1.07 1.06 1.04 1.10 1.15 1.12 1.06 1.03 1.06 1.19 1.24 1.21 1.15 1.16 1.21 1.28 1.43 1.43 1.31 1.22 1.12 1.09 1.02 0.96 1.03 1.21 1.39 1.62 1.87
1.43 1.35 1.31 1.24 1.16 1.15 1.18 1.20 1.19 1.20 1.17 1.18 1.20 1.23 1.22 1.14 1.05 1.05 1.16 1.24 1.20 1.14 1.13 1.15 1.31 1.50 1.53 1.38 1.07 0.98 1.02 1.01 1.01 1.14 1.25 1.25 1.31 1.41
1.35 1.36 1.33 1.31 1.24 1.22 1.24 1.24 1.20 1.19 1.24 1.25 1.26 1.27 1.32 1.32 1.29 1.23 1.22 1.30 1.30 1.26 1.21 1.23 1.33 1.42 1.38 1.21 1.05 0.85 0.90 1.00 1.11 1.20 1.29 1.25 1.20 1.24
1.27 1.32 1.31 1.29 1.26 1.24 1.21 1.23 1.23 1.26 1.26 1.25 1.29 1.33 1.39 1.41 1.44 1.38 1.32 1.31 1.34 1.37 1.37 1.32 1.26 1.23 1.24 1.20 1.14 1.08 0.96 1.06 1.17 1.21 1.24 1.26 1.23 1.20
1.24 1.23 1.20 1.16 1.14 1.14 1.13 1.12 1.12 1.14 1.17 1.24 1.25 1.27 1.34 1.34 1.31 1.29 1.30 1.31 1.32 1.41 1.37 1.21 1.13 1.20 1.37 1.53 1.37 1.12 1.07 1.06 1.15 1.22 1.28 1.37 1.36 1.36
1.18 1.15 1.15 1.12 1.11 1.11 1.12 1.10 1.09 1.11 1.16 1.25 1.27 1.28 1.32 1.30 1.25 1.25 1.31 1.34 1.30 1.31 1.34 1.32 1.40 1.50 1.55 1.54 1.34 1.17 1.19 1.26 1.27 1.28 1.28 1.24 1.23 1.19
1.13 1.10 1.08 1.03 1.02 1.02 1.04 1.05 1.09 1.15 1.18 1.23 1.28 1.31 1.35 1.33 1.28 1.29 1.34 1.39 1.40 1.43 1.55 1.60 1.57 1.53 1.46 1.46 1.43 1.35 1.33 1.44 1.52 1.53 1.44 1.24 0.96 0.79